Theta_e
350 351 352 352 354 354 355 354 354 355 355 355 353 348 345 346 343 338 335 333 331 331 331 330 332 333 334 334 334 333 331 330 328 326 323 319 317 317 315 315 316 317 318 319 320 322 322 319 316 316 317 317 317 317 318 319 321 322 322 323 323 323 325
349 351 352 353 354 355 355 356 356 356 355 355 354 349 347 346 341 336 332 331 330 329 329 330 331 332 331 330 332 330 327 328 327 324 321 318 316 315 315 317 317 317 319 321 322 323 321 318 316 316 315 315 317 318 319 320 321 321 322 323 323 324 326
347 350 352 353 354 354 356 357 356 357 356 356 356 351 348 346 339 332 328 328 329 328 330 331 332 332 331 331 331 329 327 327 326 322 318 317 315 315 316 317 318 319 320 321 322 321 318 317 317 316 315 317 322 324 324 322 321 322 322 323 323 324 325
347 349 351 353 355 354 355 357 357 357 355 356 356 352 348 345 339 330 327 327 329 329 331 331 331 332 332 332 331 330 330 328 324 320 318 316 315 316 316 317 318 318 318 319 318 317 315 314 315 316 317 321 326 329 327 325 324 323 322 322 323 323 324
346 348 350 351 355 355 356 357 357 358 356 355 356 353 348 345 340 332 327 327 329 329 330 330 330 331 331 331 329 330 334 331 323 319 318 317 317 317 316 317 318 317 317 317 315 314 314 316 318 320 321 323 325 327 327 327 327 325 322 320 320 321 322
345 346 349 350 352 354 356 357 357 356 356 354 356 353 350 347 343 336 329 327 328 329 331 330 330 331 330 328 325 327 334 335 325 319 318 318 318 319 317 318 318 317 316 316 316 317 318 320 323 324 325 325 325 325 327 328 327 324 323 323 322 321 321
345 346 347 349 351 352 354 356 356 356 355 354 354 354 352 349 346 341 334 330 328 329 331 331 332 332 329 327 325 323 329 333 325 319 319 320 320 319 318 319 318 317 317 317 319 320 321 323 325 326 326 326 326 327 327 326 325 325 326 326 326 325 324
344 346 346 347 349 350 353 355 355 355 356 356 356 356 354 352 350 347 341 334 330 329 331 332 332 333 330 330 328 324 325 329 326 320 320 322 321 318 317 319 318 317 318 319 320 322 323 324 325 325 326 325 326 326 326 325 325 325 326 326 326 326 326
344 345 344 346 347 348 351 352 353 353 355 355 356 356 355 354 352 350 347 342 336 332 331 332 334 334 333 331 330 328 329 330 326 321 322 323 320 317 316 318 318 318 319 320 321 322 323 323 324 326 326 325 325 326 325 324 324 324 326 326 326 326 326
345 344 345 346 345 347 349 350 352 353 354 355 355 356 356 354 353 352 352 350 345 337 333 333 335 336 335 333 333 333 334 332 325 321 324 322 319 318 317 317 318 319 320 321 322 322 322 322 324 326 326 325 325 325 324 324 325 327 328 327 326 325 324
343 344 345 345 345 346 347 350 352 352 353 354 354 355 355 354 354 354 354 354 351 344 338 337 338 339 338 336 335 336 338 336 325 321 323 321 319 320 317 316 318 320 320 322 321 321 321 322 324 325 325 324 324 324 323 325 327 328 327 327 325 323 322
344 344 345 345 345 345 347 348 350 350 351 352 352 354 354 354 355 354 355 355 354 350 345 342 343 343 341 340 337 336 341 340 327 319 322 322 323 324 319 316 318 319 321 322 321 321 321 322 324 324 325 324 323 322 322 324 326 327 327 327 325 322 322
344 345 344 345 344 344 346 347 348 349 350 350 352 353 354 354 355 356 356 356 355 354 351 348 347 346 345 343 341 340 344 342 330 319 321 325 326 324 318 316 318 319 321 322 321 320 321 322 324 324 325 324 321 320 320 322 325 327 329 327 323 322 323
344 345 344 346 345 345 347 347 348 349 350 351 353 355 357 357 357 357 357 356 356 356 353 352 351 349 347 346 345 344 344 344 334 321 321 326 325 321 316 317 318 319 321 321 319 319 320 321 323 324 324 321 319 320 321 323 326 328 329 326 322 321 322
344 344 344 346 346 346 348 347 349 349 349 351 353 354 357 358 358 358 358 357 357 356 355 354 352 351 349 348 347 346 344 344 336 324 322 326 324 318 316 317 318 319 320 320 318 319 319 320 323 325 323 320 319 321 324 325 326 326 328 326 323 322 321
344 344 345 346 346 347 347 348 348 349 349 350 351 352 355 356 358 358 357 358 357 357 355 354 353 352 351 349 349 347 345 343 337 326 324 327 322 317 317 318 317 318 319 318 317 318 319 320 324 325 322 320 320 324 326 326 325 325 327 327 325 323 322
343 343 345 346 345 346 347 347 348 348 349 349 350 351 353 354 356 356 357 358 357 357 356 354 354 353 352 350 349 347 346 343 337 328 325 328 323 318 317 317 317 318 318 317 318 318 319 321 324 324 321 320 321 324 327 327 326 326 327 327 326 325 324
343 343 344 345 346 346 345 347 347 347 348 347 348 350 350 352 354 355 356 356 356 356 356 354 354 353 352 350 348 347 346 343 337 330 328 329 326 321 319 318 318 318 318 317 318 319 320 322 323 323 321 320 322 324 327 328 328 329 329 328 326 325 325
343 342 343 343 343 344 344 345 346 346 346 346 347 348 348 350 352 353 355 355 354 355 355 354 354 352 351 349 347 346 344 340 338 336 332 331 328 324 322 320 318 319 319 319 319 319 321 323 323 323 322 323 325 326 327 327 328 330 331 330 329 327 326
342 341 343 344 345 344 344 346 346 346 346 344 345 346 347 350 352 353 355 354 353 354 354 353 353 350 349 348 346 345 343 339 339 337 333 330 328 327 326 323 320 320 320 320 320 321 322 324 325 324 324 325 327 327 328 328 329 329 330 332 332 330 328
343 344 345 345 344 342 342 342 341 342 340 338 339 341 346 349 351 353 355 354 353 354 353 352 350 349 348 347 345 345 343 340 338 337 333 330 329 331 331 327 322 320 321 321 321 321 322 324 325 325 325 326 328 328 329 330 331 330 330 330 332 332 331
345 346 344 339 336 336 337 336 336 336 336 334 334 335 338 341 346 352 354 355 354 353 351 350 349 348 347 346 346 345 343 341 340 337 333 330 331 333 334 331 325 322 321 321 321 322 323 324 325 326 326 327 328 329 331 333 332 330 329 330 331 333 333
343 343 338 336 335 336 337 337 337 336 336 336 335 334 335 338 343 349 352 353 354 352 350 348 347 347 347 346 346 344 343 343 341 336 332 331 330 332 334 332 329 327 324 324 323 324 324 324 326 326 327 328 330 332 333 333 330 328 329 331 332 331 331
340 339 337 336 337 337 338 338 338 337 337 337 336 336 337 340 343 346 348 351 353 351 350 348 347 347 346 345 345 343 343 342 339 336 333 329 327 331 334 332 331 332 331 329 327 326 326 327 328 328 328 330 332 333 332 332 330 328 329 331 331 330 328
340 339 338 337 336 336 335 336 337 336 336 335 333 334 336 337 340 342 345 348 350 351 351 350 349 348 346 344 343 342 343 343 339 336 332 326 325 332 335 333 335 337 336 334 331 330 330 331 331 330 330 332 333 333 331 330 329 328 328 330 330 328 327
341 340 340 338 338 337 337 336 336 336 335 333 331 333 333 333 334 336 337 339 344 348 349 348 348 348 345 343 342 342 343 342 338 334 330 326 326 331 335 337 340 340 339 338 335 333 334 335 334 334 334 335 334 332 330 328 327 327 329 329 329 327 326
339 341 341 340 340 340 338 338 336 335 335 335 334 332 331 330 332 331 331 335 340 345 347 347 348 347 344 342 342 342 340 338 334 330 327 326 327 330 336 340 340 338 337 337 336 335 336 336 335 335 335 334 331 330 328 328 328 329 329 328 327 326 325
332 335 335 336 338 338 338 338 337 336 337 336 335 334 332 331 331 330 332 338 344 346 346 346 345 344 341 340 341 340 337 335 332 328 325 325 326 328 333 337 336 335 336 336 336 336 336 336 336 335 334 332 329 328 329 328 328 328 327 326 325 324 323
331 331 331 332 332 333 334 335 336 337 338 338 337 338 336 336 337 336 339 344 346 345 344 343 343 341 338 337 338 337 336 334 331 328 326 327 327 328 332 334 334 335 336 337 336 336 335 336 336 334 333 331 329 329 328 326 326 325 324 323 322 321 320
332 331 332 332 331 331 332 334 337 339 340 340 341 341 341 342 343 344 345 346 345 344 344 343 342 340 338 337 337 336 335 335 334 333 332 331 331 333 335 334 333 335 337 336 335 335 334 335 334 332 330 329 329 328 326 324 324 322 321 320 319 319 318
332 332 332 331 332 332 332 334 338 342 343 343 343 344 345 346 346 346 346 345 345 344 343 342 341 340 337 336 336 335 333 334 335 335 335 333 332 334 335 334 333 334 336 336 335 334 334 333 331 330 328 328 328 326 324 323 321 319 318 318 318 319 318
332 332 332 331 330 331 331 332 333 338 342 344 344 345 346 346 347 347 347 345 345 343 342 341 340 339 337 338 337 335 334 335 335 333 331 328 327 329 332 334 334 334 336 336 334 333 332 330 328 327 326 327 326 324 323 321 319 318 318 318 318 319 319
330 330 331 332 332 331 331 331 331 334 340 345 345 346 346 346 346 346 345 345 344 342 341 341 339 338 338 337 334 331 331 332 331 328 326 325 325 328 332 335 335 333 333 333 331 330 330 328 326 325 324 325 324 323 322 319 317 317 318 318 318 318 319
328 328 328 328 330 331 331 331 332 334 340 344 345 345 344 344 344 344 343 343 341 340 339 338 335 335 334 331 328 326 327 328 328 327 327 327 328 330 331 329 329 329 330 330 329 329 328 327 325 324 323 323 323 321 319 318 317 318 318 318 318 318 319
327 330 330 328 329 331 332 332 333 336 339 342 343 343 342 342 341 341 341 340 337 336 334 330 329 329 328 325 325 326 327 326 324 325 325 324 325 327 325 321 323 328 329 329 329 329 327 325 325 324 324 323 321 320 319 318 317 318 318 318 318 318 319
327 331 333 332 331 331 331 331 333 336 338 340 341 341 341 340 339 338 337 336 334 333 332 329 328 327 325 324 323 325 325 324 324 325 325 324 325 325 321 320 324 329 330 329 328 327 325 325 325 324 322 321 321 320 319 318 318 318 318 318 317 318 318
331 333 334 334 332 332 332 332 334 336 338 340 340 339 339 339 337 337 336 335 334 332 331 331 329 326 325 325 324 324 325 325 326 326 326 325 325 322 319 321 326 329 329 328 327 326 325 325 325 323 322 321 322 321 320 319 318 318 318 318 318 317 318
334 335 335 335 334 333 332 333 334 335 337 339 339 338 338 337 337 336 336 335 334 333 332 330 328 327 327 326 324 324 325 326 326 326 325 324 322 318 318 323 328 330 329 327 326 325 325 325 323 322 322 322 321 321 320 319 319 319 318 318 318 318 318
Wind_Speed
37 38 41 43 45 46 47 49 49 48 48 46 44 41 39 39 39 38 38 38 38 38 37 36 35 33 30 28 26 23 21 18 17 17 18 19 20 19 18 18 17 16 15 13 13 13 13 11 9 8 7 7 7 7 7 7 7 7 7 6 6 6 5
36 38 41 43 45 46 47 48 48 49 49 48 47 44 42 42 41 41 42 42 42 41 40 39 37 34 32 29 27 25 22 20 19 19 20 21 21 19 18 17 17 15 14 14 14 14 14 13 11 9 9 8 6 5 5 6 7 8 8 8 8 8 8
38 39 41 44 46 47 47 47 47 48 49 49 48 46 44 44 44 44 45 46 45 44 42 40 38 35 33 31 30 27 24 22 21 22 22 22 20 18 17 16 16 15 14 15 15 15 15 14 13 11 9 8 6 6 7 8 8 9 9 10 10 10 10
40 42 43 44 46 47 46 47 48 49 50 49 49 47 46 46 45 46 47 48 48 46 44 41 39 37 35 33 31 29 26 24 23 23 23 20 18 16 17 17 17 15 15 15 15 15 15 14 13 11 8 7 7 8 11 11 10 11 11 12 12 12 13
40 41 41 41 43 44 45 46 48 49 50 50 50 49 47 47 47 47 48 49 49 47 45 42 40 39 36 33 31 30 28 26 24 23 22 19 17 17 18 18 17 16 15 14 14 15 14 13 11 9 7 7 8 10 12 12 12 12 12 12 12 13 13
38 39 40 41 42 44 46 47 49 50 51 50 51 51 49 49 49 49 49 50 51 49 46 44 43 41 38 35 33 31 30 28 26 24 21 19 18 18 19 18 17 16 14 13 14 14 13 11 9 7 7 7 8 9 11 12 11 11 10 10 10 11 11
40 41 42 43 44 46 47 48 50 51 51 51 51 51 51 51 51 51 51 51 52 51 49 47 46 43 40 38 36 33 31 30 27 25 22 19 18 18 17 17 17 16 14 14 14 14 12 10 8 8 7 7 8 8 9 10 9 9 9 9 9 9 9
42 43 45 45 46 47 47 48 49 50 51 51 51 51 52 52 52 53 52 52 53 52 52 50 48 46 43 40 38 35 33 31 29 26 22 20 18 17 17 17 17 16 15 14 14 14 12 10 8 8 8 7 7 8 8 8 8 8 9 9 10 10 10
42 44 47 47 47 47 46 47 48 49 50 50 51 52 52 53 54 54 55 54 54 54 54 52 50 47 44 42 40 37 35 32 30 27 23 21 19 17 17 17 17 17 16 15 14 14 12 10 9 9 8 8 8 7 7 7 7 8 8 9 10 11 12
40 43 45 46 46 47 45 46 47 47 48 50 51 52 53 54 55 55 55 55 55 56 55 54 52 49 47 45 42 39 37 34 33 29 24 22 19 16 17 18 17 18 17 15 15 14 12 11 10 10 10 9 8 7 6 7 8 9 10 11 12 12 12
40 42 43 44 46 46 45 45 45 46 48 50 51 53 54 55 55 56 56 55 56 56 56 55 53 51 49 47 44 43 41 38 36 31 26 23 18 14 17 19 18 19 18 17 16 14 12 12 11 11 11 10 8 8 8 8 10 10 11 11 12 13 12
39 40 42 45 47 47 46 44 45 48 49 50 51 53 55 55 56 56 57 56 56 56 56 55 54 53 51 49 47 47 44 41 38 33 28 24 17 13 17 20 19 19 20 19 17 15 13 13 12 12 11 10 9 9 9 10 11 11 11 12 13 12 11
39 40 43 46 48 48 47 45 46 48 48 49 50 53 55 55 55 56 56 56 56 55 55 55 54 54 53 51 51 50 47 43 39 36 31 23 15 16 20 21 20 20 21 20 18 16 15 14 13 12 12 11 10 10 11 11 12 11 11 12 12 11 10
36 38 41 45 47 48 46 46 47 47 48 49 50 52 52 53 54 54 55 56 55 55 56 55 55 55 55 54 53 51 49 45 41 38 31 21 16 20 23 22 21 21 21 21 19 17 16 14 13 13 14 12 11 10 11 12 12 11 11 12 12 11 11
34 37 41 44 47 47 46 46 47 47 48 48 49 49 50 51 51 51 52 54 54 54 55 55 55 56 56 56 55 53 51 47 42 38 30 20 19 23 23 22 22 22 22 21 19 17 15 14 14 15 16 14 12 11 11 11 11 10 11 12 12 11 12
34 38 42 45 46 46 46 46 47 47 47 47 47 49 50 51 51 51 52 53 54 54 55 54 55 56 57 57 56 55 52 47 43 39 29 22 23 25 23 22 22 22 22 21 19 17 15 15 16 17 17 15 13 12 11 11 10 10 11 12 12 12 13
36 39 41 43 44 44 44 44 44 44 44 45 46 47 48 50 51 52 53 53 54 55 55 55 55 56 57 57 55 54 53 49 46 41 32 26 26 26 22 21 21 21 21 20 18 17 16 16 17 18 17 16 14 14 12 11 11 11 12 13 14 14 15
36 38 39 39 40 41 40 40 40 40 41 42 44 45 46 48 50 51 52 53 53 53 53 53 55 56 56 54 54 55 55 50 46 40 30 23 24 24 21 20 20 20 21 20 18 18 17 18 18 18 17 15 15 14 12 12 12 13 14 16 16 17 17
35 35 36 36 36 36 35 34 33 33 34 35 38 40 42 44 47 49 51 50 49 50 52 54 55 54 51 50 49 48 47 44 40 36 27 20 22 24 22 20 21 21 21 20 18 19 19 19 19 18 16 15 15 14 13 13 14 15 17 18 19 20 20
33 33 33 32 30 27 25 24 23 23 23 25 28 32 36 40 43 46 46 46 46 49 52 52 50 48 45 44 43 42 42 42 40 37 31 25 27 29 26 23 22 21 21 20 20 21 21 20 20 18 16 15 15 15 15 15 15 17 19 21 22 22 23
29 28 26 22 19 15 13 12 12 12 12 11 14 22 29 34 38 42 43 44 47 49 50 47 44 42 41 42 43 44 46 45 43 41 35 28 29 32 31 27 24 22 21 22 22 23 22 21 20 18 17 17 16 15 16 17 18 21 22 22 23 24 25
24 21 18 15 13 11 9 9 10 9 6 2 3 9 15 20 30 37 41 43 46 47 46 43 42 41 42 43 45 47 46 44 44 44 37 29 30 34 34 30 27 23 23 23 23 23 22 20 19 19 19 19 18 18 19 20 20 22 22 22 23 25 26
20 19 17 15 12 10 8 10 11 9 7 4 4 6 8 13 22 29 34 39 44 45 43 41 41 41 42 45 47 46 43 43 44 41 33 29 31 33 33 32 30 28 26 26 25 24 23 21 20 20 20 20 22 22 21 21 20 21 20 20 20 22 23
19 17 16 14 12 11 11 11 9 8 7 5 5 7 9 13 18 23 29 35 41 43 41 39 39 41 44 46 45 42 42 44 44 39 30 27 30 32 32 31 32 33 31 28 26 25 23 22 22 22 24 26 27 24 21 21 22 23 22 19 17 19 21
16 15 14 12 9 9 9 8 7 7 5 3 5 6 7 9 13 18 23 28 35 40 40 39 42 44 44 43 41 42 42 42 41 34 26 25 30 31 31 32 35 38 37 32 29 27 26 26 27 27 28 29 27 23 21 21 22 23 22 19 17 19 20
12 13 14 11 8 6 6 5 6 4 3 6 7 7 7 8 9 12 16 20 26 33 37 39 41 43 42 41 42 43 42 41 36 25 18 23 31 30 30 35 38 38 36 34 33 31 30 30 29 27 27 27 26 25 23 20 19 20 20 18 18 19 21
11 11 11 9 8 6 3 1 3 5 7 8 9 11 11 10 9 11 13 16 22 28 33 36 38 39 40 41 41 39 39 38 29 17 16 23 29 28 31 35 33 30 32 35 36 35 33 31 28 25 26 26 24 22 20 17 17 18 18 18 18 20 20
14 13 10 9 7 4 3 5 7 9 10 11 13 15 14 12 11 11 13 16 21 24 27 29 30 31 33 36 36 34 35 31 21 17 21 23 25 29 32 33 29 28 31 33 32 30 29 29 27 26 26 24 21 17 15 15 16 17 17 17 18 19 19
15 14 11 10 8 6 4 4 7 9 12 13 14 15 14 13 11 11 13 17 19 20 21 22 25 28 29 27 26 28 32 28 19 18 24 27 28 29 29 28 27 27 27 27 25 24 24 26 24 22 21 20 16 14 13 13 15 15 15 17 18 18 18
18 16 13 11 9 7 4 3 7 10 13 14 14 15 15 15 14 14 16 18 18 17 16 15 19 25 22 16 18 25 30 27 19 20 25 29 29 25 23 24 25 26 28 28 26 25 24 22 21 19 19 16 13 13 13 13 14 15 16 17 17 16 16
16 15 13 12 11 10 9 8 8 10 12 13 14 14 15 16 16 16 16 18 18 17 13 12 17 22 17 14 17 24 28 27 25 26 25 23 20 17 18 21 21 23 27 27 24 22 21 18 17 17 16 13 12 12 13 13 15 16 17 17 16 16 15
15 14 12 10 10 10 10 10 10 11 10 10 12 14 14 15 15 15 16 17 17 15 12 13 17 17 14 14 16 20 24 25 24 20 13 8 4 5 12 17 17 17 20 21 20 19 18 15 15 13 12 12 12 13 13 15 16 17 17 17 16 16 15
16 16 14 12 10 8 8 8 9 10 9 9 12 14 14 14 14 14 14 15 14 12 10 12 14 12 9 10 12 11 12 14 12 10 8 5 3 4 10 15 15 14 16 17 17 16 15 13 11 11 11 12 13 14 14 15 16 16 17 16 16 15 14
14 15 15 15 15 13 11 10 9 10 10 11 14 15 15 15 13 13 13 12 11 10 10 12 13 14 17 19 17 15 14 13 11 9 6 3 5 8 10 11 14 16 17 17 16 14 13 11 10 10 11 11 13 13 13 15 16 16 16 15 15 14 14
15 15 14 14 15 14 13 11 11 11 12 13 15 16 16 15 13 13 14 13 12 13 14 17 20 22 24 22 19 18 16 13 11 9 6 3 5 9 10 13 17 19 18 16 14 13 11 9 9 10 11 11 12 12 13 15 16 15 15 16 15 15 15
15 14 13 12 11 10 12 12 12 12 13 15 17 17 17 16 16 16 16 15 15 14 13 14 17 20 20 18 16 15 14 10 10 13 14 10 10 13 15 17 19 20 17 15 14 12 11 10 10 11 12 12 12 13 14 16 16 16 16 16 16 16 16
7 7 11 13 12 12 13 13 13 14 15 17 18 19 20 19 18 18 18 17 16 11 6 9 14 15 13 11 10 12 14 13 14 17 20 19 17 18 18 19 20 20 18 16 15 13 12 12 12 12 12 12 12 14 15 17 18 17 17 16 16 16 17
5 7 11 15 16 16 16 15 14 15 17 19 20 22 22 19 19 19 18 15 14 8 6 9 14 12 9 10 13 13 13 13 13 16 19 20 19 19 18 19 21 20 18 16 15 15 14 13 13 12 12 12 14 15 16 18 18 18 17 16 16 16 17
Wind_Direction
202 204 205 205 206 207 208 209 209 209 210 211 210 209 207 206 207 208 207 206 204 202 202 205 208 210 212 214 217 220 223 227 232 238 240 234 226 221 218 217 217 218 221 227 234 242 248 245 239 239 241 245 244 242 244 241 239 240 239 230 219 223 237
201 204 205 205 206 208 210 210 210 210 211 212 211 209 207 205 206 207 206 204 204 203 203 205 208 210 210 213 216 217 218 222 227 231 229 225 220 215 212 212 213 215 221 229 235 241 243 239 233 233 237 243 243 243 254 255 247 244 244 239 233 235 241
202 204 205 206 207 209 210 210 210 211 213 213 212 210 208 207 207 206 205 203 204 204 205 207 210 211 212 214 216 217 217 219 223 225 222 219 215 213 213 214 214 216 221 227 233 236 236 233 230 229 233 240 250 264 277 277 267 259 257 251 245 243 246
203 206 206 208 208 209 210 210 211 212 214 214 214 212 211 209 208 207 206 205 205 205 206 208 210 213 215 217 219 219 218 218 221 223 220 215 212 215 218 217 215 215 219 224 228 228 226 224 222 222 227 237 251 262 271 275 273 270 267 262 257 253 254
204 206 207 208 208 210 210 211 212 213 215 216 215 215 214 212 211 210 209 208 208 208 208 209 210 212 215 217 221 223 223 222 221 221 218 212 212 218 219 218 216 214 215 220 222 221 218 214 211 215 227 243 254 262 268 272 271 270 271 270 268 264 264
203 204 206 208 209 211 211 212 214 215 217 218 217 218 217 214 213 212 212 211 211 211 212 213 214 214 213 214 217 222 224 225 223 220 217 212 214 220 220 217 217 214 212 213 214 213 211 208 206 214 228 241 254 263 268 269 267 267 272 275 275 272 271
202 203 207 209 211 213 213 213 215 217 219 220 219 219 217 216 215 215 216 215 214 214 214 215 217 217 215 214 214 217 220 223 222 219 215 211 215 221 221 220 219 217 213 208 207 207 204 201 203 210 221 232 244 257 263 263 261 262 267 270 271 271 273
203 205 207 210 214 216 215 214 216 218 219 219 218 218 218 217 217 217 218 218 217 217 216 217 219 219 218 217 216 216 217 219 219 216 212 210 213 218 220 222 223 220 214 207 203 203 202 199 200 207 217 226 238 250 255 258 258 258 262 266 269 271 272
204 206 209 213 216 217 217 217 219 219 219 219 219 219 219 219 219 219 221 221 220 219 219 220 221 221 221 221 219 218 217 219 218 213 209 208 210 215 220 223 224 222 217 207 201 202 204 205 208 216 225 233 241 246 249 252 251 253 262 269 272 275 276
205 207 210 214 217 219 221 221 221 219 219 220 220 220 220 221 221 221 221 221 221 222 222 222 221 222 223 223 223 221 219 218 216 212 209 207 207 216 221 222 224 224 218 208 203 205 208 211 219 227 233 240 244 248 253 254 254 259 267 273 279 285 288
205 207 209 212 217 220 221 220 219 220 222 222 222 222 222 222 222 222 222 222 223 224 223 222 222 223 224 224 224 223 221 218 214 210 207 203 203 217 222 219 221 222 218 211 207 209 211 217 226 232 237 242 244 250 256 256 259 265 272 282 291 293 291
205 206 208 212 216 219 219 219 220 222 224 224 224 224 223 223 224 224 223 223 224 224 224 223 223 224 225 225 225 224 222 217 213 210 206 201 206 226 225 218 218 219 216 213 211 211 214 219 227 234 241 246 248 252 256 258 262 267 277 289 293 288 281
205 207 209 213 217 219 220 220 222 224 225 227 227 226 225 225 226 224 223 224 224 224 224 223 223 224 226 226 226 225 222 217 214 211 207 203 212 224 217 213 216 218 216 215 214 213 215 220 227 238 245 246 246 251 255 256 258 265 278 288 287 277 270
206 208 210 213 217 219 219 220 223 225 226 227 227 225 225 226 226 225 225 225 225 225 225 225 224 225 227 227 226 224 223 219 215 211 206 205 213 213 208 210 215 217 217 215 214 215 216 219 228 241 245 241 241 250 255 254 254 261 273 282 281 271 268
205 208 210 214 217 219 220 221 224 226 228 228 227 227 227 226 226 226 226 226 226 226 226 226 225 226 227 227 225 224 224 220 215 209 204 202 205 203 204 208 212 215 216 215 215 217 217 219 231 242 242 237 241 251 254 253 254 259 268 276 279 271 268
206 209 212 214 217 220 222 224 226 228 229 230 231 231 230 229 229 228 228 228 228 228 228 227 227 228 228 227 226 224 223 219 212 206 202 200 200 200 203 206 208 213 216 215 217 218 217 222 234 241 240 238 243 248 249 252 255 259 264 271 277 275 273
208 211 213 216 218 221 225 226 228 229 230 233 235 234 233 233 233 231 231 230 230 231 231 229 229 230 229 227 224 223 222 218 211 204 201 202 200 197 200 203 206 212 214 215 218 220 220 227 235 239 239 237 240 242 246 253 258 262 266 268 271 275 278
209 212 215 218 220 222 226 228 230 233 235 238 238 237 238 238 235 234 233 232 232 232 231 231 232 232 229 224 223 223 221 215 207 200 199 202 202 200 201 202 205 212 215 217 220 221 223 229 234 237 237 236 238 241 246 254 260 266 270 270 272 275 280
210 213 215 218 220 223 227 231 235 238 240 243 244 244 245 243 239 237 234 234 237 237 234 234 233 231 226 222 221 220 214 206 201 198 196 202 210 209 205 205 208 213 217 219 223 226 228 231 234 236 236 236 239 242 247 253 257 261 265 269 274 278 281
208 211 214 216 219 224 229 235 239 242 247 252 256 256 251 246 243 241 236 236 240 239 235 234 232 228 223 220 218 214 208 205 205 202 199 206 215 212 209 210 212 214 220 224 227 230 231 233 235 234 233 236 240 246 253 258 263 267 267 267 270 275 279
207 209 208 206 206 207 211 218 223 230 241 258 270 267 260 255 251 245 238 237 238 238 236 234 231 226 222 220 218 215 210 209 209 204 201 207 213 212 212 215 214 215 222 227 229 233 234 235 235 234 234 239 244 252 261 269 275 279 274 268 266 269 272
200 192 179 168 162 156 162 180 184 186 191 199 284 279 274 270 260 250 242 239 239 239 239 235 232 229 224 222 221 217 211 208 205 202 203 208 211 213 215 217 217 218 223 228 232 235 237 237 237 240 243 248 252 259 266 272 278 281 275 270 269 266 267
177 167 154 150 151 145 155 172 172 168 169 171 215 253 265 268 261 253 248 246 242 241 241 238 235 233 228 227 226 218 206 200 199 200 204 206 204 208 214 217 220 221 224 231 235 236 239 240 241 244 249 253 256 260 266 271 277 280 275 270 271 269 272
163 161 155 151 152 152 155 163 167 170 172 182 222 245 253 260 260 255 252 250 246 243 242 240 239 239 236 232 225 210 196 196 200 200 200 197 197 204 211 215 221 224 226 232 237 240 242 244 245 249 252 253 255 260 267 273 278 280 275 270 273 276 280
160 161 156 152 159 166 162 163 167 169 179 232 265 261 253 257 262 260 258 256 252 247 245 246 249 248 240 228 213 202 199 201 201 196 190 191 198 205 211 216 225 231 232 235 239 242 244 245 247 253 254 252 254 261 270 276 279 280 276 273 275 278 279
148 157 156 148 147 152 147 159 173 185 246 273 280 271 253 245 253 260 264 266 260 254 253 256 256 248 236 220 209 207 204 197 192 188 190 202 207 212 221 228 235 241 241 241 243 244 245 244 245 249 252 254 259 266 270 273 273 272 272 271 272 274 277
105 125 134 127 126 125 110 228 256 290 294 289 291 283 264 246 247 261 270 269 261 255 256 258 253 244 231 214 205 204 197 187 183 181 185 203 215 226 236 240 244 249 249 248 248 246 243 240 242 248 257 266 275 277 271 265 261 262 264 267 272 277 281
75 81 87 88 90 74 3 310 307 312 302 295 292 280 261 244 248 268 271 260 253 251 252 250 241 229 215 202 199 201 194 185 180 177 181 200 223 233 241 246 248 249 249 249 249 246 243 244 249 256 265 275 283 279 266 257 258 262 268 275 280 285 287
56 57 62 60 49 40 20 328 310 298 283 276 272 260 245 235 242 255 250 241 244 250 250 243 227 211 202 201 205 205 198 190 190 196 201 213 226 235 246 256 256 251 249 248 248 252 256 257 257 263 275 282 278 267 261 263 268 275 285 289 292 293 291
42 44 45 36 24 26 27 335 296 281 270 263 255 243 232 227 231 238 236 234 240 248 249 240 218 205 206 221 225 215 207 204 214 231 230 227 233 246 259 261 258 252 246 246 251 255 255 253 256 270 283 283 269 260 266 276 285 293 299 299 298 297 293
32 36 34 24 19 17 7 346 322 301 282 266 251 235 226 226 231 235 239 241 242 244 245 233 209 204 218 246 236 217 212 216 231 245 243 233 237 253 257 252 252 248 243 248 254 250 244 249 263 276 280 272 262 266 278 290 299 303 304 304 302 299 293
19 20 17 13 14 12 1 347 334 319 299 270 246 233 229 231 234 238 245 246 241 240 243 235 220 218 236 248 231 217 218 226 232 234 225 204 202 239 245 246 250 248 244 245 244 240 245 260 270 271 266 260 264 275 285 295 303 306 307 307 302 297 291
9 5 2 357 352 351 351 346 329 311 291 260 237 229 228 230 231 235 242 243 239 234 225 215 213 211 200 188 183 183 194 203 199 178 154 135 132 201 224 232 241 247 242 233 231 239 257 269 266 259 258 261 269 278 287 299 307 310 308 304 297 291 285
5 360 357 351 345 341 341 337 316 289 267 242 226 220 222 225 225 227 228 226 221 208 182 168 170 163 150 145 142 138 143 152 151 147 151 178 204 211 220 237 253 252 238 231 240 256 266 265 257 254 258 263 271 281 295 308 313 310 305 299 292 286 282
356 356 351 350 351 344 330 318 299 278 257 234 221 218 218 214 209 208 209 202 193 182 160 142 139 144 147 148 149 146 141 138 143 153 164 197 223 232 253 272 268 253 238 240 256 264 261 256 251 252 259 267 276 288 304 314 314 309 302 296 290 284 278
353 348 333 327 328 315 301 293 281 266 245 227 219 214 207 200 194 190 189 187 185 183 171 157 154 155 153 153 158 164 167 173 188 198 205 218 239 254 264 266 257 247 244 253 260 256 251 249 249 255 264 271 280 294 307 314 314 309 302 295 287 279 274
337 315 295 288 282 279 280 275 265 255 240 225 216 208 201 200 199 196 194 193 189 187 196 201 191 181 171 173 196 215 217 221 226 224 222 229 244 253 255 254 251 248 248 252 254 251 248 249 255 262 268 275 287 299 309 313 313 307 299 291 282 275 273
286 285 285 282 275 270 268 265 261 255 240 223 211 204 201 202 203 202 204 203 198 207 258 238 209 207 235 253 254 256 249 244 247 243 236 238 243 245 248 251 250 246 248 253 254 250 248 253 259 263 273 286 296 302 307 310 308 301 292 284 279 275 274